Location: Buckenweiler
(49.0667°N, 10.2500°E)
Time: 07:46:28
(UTC+00:00)

SMAP - Pass Details

Date: 18 January 2026
Orbit: 682 x 683 km, 98.1° (Epoch: 15 February)

Event Time Altitude Azimuth Distance (km) Brightness Sun altitude
Rises 05:13:15 0° 19° (NNE) 3,058 6.5 -17.9°
Reaches altitude 10° 05:15:37 10° 26° (NNE) 2,137 5.8 -17.6°
Maximum altitude 05:20:03 42° 98° (E) 969 4.4 -16.9°
Drops below altitude 10° 05:24:28 10° 170° (S) 2,120 5.9 -16.1°
Sets 05:26:47 0° 177° (S) 3,031 6.6 -15.8°
